Date String (YYYY-MM-DD hh:mm:ss) UTC,Instrument flags,absolute air pressure of the measurement (hPa),sample flow rate (lpm),inlet stack bypass flow (lpm),air temperature of the measurement (°C),ambient temperature measured by the external sensor (°C),aerosol sample conditioner tube jacket temperature (°C),OPC LED temperature (°C),internal box temperature (°C),relative humidity of the measurement (%),span deviation,mass concentration of particles derived from Lorenz-Mie calculation of OPC scattering (μg/m³),mass concentration of particles derived from Lorenz-Mie calculation of OPC scattering (μg/m³),mass concentration of particles derived from Lorenz-Mie calculation of OPC scattering (μg/m³)
DateTimeUTC,F1_M11,P_M11,Q1_M11,Q2_M11,T1_M11,T2_M11,T3_M11,T4_M11,T5_M11,U1_M11,ZSPAN_M11,X0_M11,X2_M11,X1_M11
2024-05-05 14:00:00,SystemResetWarning,0822.4,5.00,000.00,023.5,022.8,000.0,032.0,025.3,022.5,0000.0,0012.50,0004.19,0003.24
2024-05-05 14:01:00,SystemResetWarning,0822.4,5.00,000.00,023.5,022.8,000.0,031.9,025.2,022.7,0000.0,0011.55,0004.18,0003.24
2024-05-05 14:02:00,SystemResetWarning,0822.4,4.99,000.00,023.5,022.8,000.0,032.0,025.2,022.4,0000.0,0010.67,0004.18,0003.25
2024-05-05 14:03:00,SystemResetWarning,0822.4,4.99,000.00,023.5,022.8,000.0,032.0,025.3,022.4,0000.0,0010.44,0004.12,0003.24
2024-05-05 14:04:00,SystemResetWarning,0822.4,5.00,000.00,023.5,022.8,000.0,032.0,025.3,022.8,0000.0,0010.39,0004.12,0003.24
2024-05-05 14:05:00,SystemResetWarning,0822.4,5.01,000.00,023.5,022.8,000.0,032.0,025.3,022.9,0000.0,0010.70,0004.10,0003.22
2024-05-05 14:06:00,SystemResetWarning,0822.4,5.01,000.00,023.5,022.8,000.0,032.0,025.3,022.6,0000.0,0010.73,0004.04,0003.22
2024-05-05 14:07:00,SystemResetWarning,0822.4,4.99,000.00,023.5,022.8,000.0,032.0,025.3,022.8,0000.0,0010.33,0004.07,0003.21
2024-05-05 14:08:00,SystemResetWarning,0822.4,4.99,000.00,023.5,022.8,000.0,032.0,025.3,022.6,0000.0,0010.44,0004.09,0003.20
2024-05-05 14:09:00,SystemResetWarning,0822.4,5.00,000.00,023.5,022.8,000.0,032.0,025.3,022.6,0000.0,0011.07,0004.06,0003.19
2024-05-05 14:10:00,SystemResetWarning,0822.4,5.00,000.00,023.5,022.8,000.0,032.0,025.3,023.1,0000.0,0011.34,0004.07,0003.20
2024-05-05 14:11:00,SystemResetWarning,0822.4,5.00,000.00,023.5,022.8,000.0,032.0,025.3,023.1,0000.0,0011.27,0004.09,0003.20
2024-05-05 14:12:00,SystemResetWarning,0822.4,5.00,000.00,023.5,022.8,000.0,032.0,025.3,022.8,0000.0,0010.64,0004.08,0003.19
2024-05-05 14:13:00,SystemResetWarning,0822.4,4.98,000.00,023.5,022.8,000.0,032.0,025.4,022.7,0000.0,0011.46,0004.09,0003.19
2024-05-05 14:14:00,SystemResetWarning,0822.4,5.00,000.00,023.5,022.8,000.0,032.0,025.4,022.6,0000.0,0011.71,0004.12,0003.18
2024-05-05 14:15:00,SystemResetWarning,0822.4,5.00,000.00,023.5,022.8,000.0,032.0,025.4,022.8,0000.0,0011.84,0004.13,0003.19
2024-05-05 14:16:00,SystemResetWarning,0822.4,5.00,000.00,023.5,022.8,000.0,032.0,025.4,022.9,0000.0,0011.26,0004.11,0003.19
2024-05-05 14:17:00,SystemResetWarning,0822.4,5.00,000.00,023.5,022.8,000.0,032.0,025.4,023.2,0000.0,0011.06,0004.16,0003.19
2024-05-05 14:18:00,SystemResetWarning,0822.4,5.01,000.00,023.5,022.8,000.0,032.0,025.3,023.4,0000.0,0011.29,0004.18,0003.19
2024-05-05 14:19:00,SystemResetWarning,0822.4,5.01,000.00,023.5,022.8,000.0,032.0,025.3,023.6,0000.0,0011.25,0004.19,0003.20
2024-05-05 14:20:00,SystemResetWarning,0822.4,5.00,000.00,023.5,022.8,000.0,032.0,025.3,023.6,0000.0,0010.45,0004.23,0003.21
2024-05-05 14:21:00,SystemResetWarning,0822.4,4.99,000.00,023.5,022.8,000.0,032.0,025.3,023.3,0000.0,0009.94,0004.23,0003.21
2024-05-05 14:22:00,SystemResetWarning,0822.4,4.99,000.00,023.5,022.8,000.0,032.0,025.3,023.3,0000.0,0010.12,0004.23,0003.21
2024-05-05 14:23:00,SystemResetWarning,0822.4,5.00,000.00,023.5,022.8,000.0,032.0,025.3,023.7,0000.0,0011.10,0004.20,0003.22
2024-05-05 14:24:00,SystemResetWarning,0822.4,5.01,000.00,023.5,022.8,000.0,032.0,025.3,023.9,0000.0,0010.62,0004.20,0003.24
2024-05-05 14:25:00,SystemResetWarning,0822.4,5.00,000.00,023.5,022.8,000.0,032.0,025.3,023.5,0000.0,0012.46,0004.25,0003.25
2024-05-05 14:26:00,SystemResetWarning,0822.4,5.01,000.00,023.5,022.8,000.0,032.0,025.3,023.6,0000.0,0013.27,0004.30,0003.26
2024-05-05 14:27:00,SystemResetWarning,0822.4,5.00,000.00,023.5,022.8,000.0,032.0,025.3,023.6,0000.0,0013.47,0004.39,0003.28
2024-05-05 14:28:00,SystemResetWarning,0822.4,5.00,000.00,023.5,022.8,000.0,032.0,025.3,023.6,0000.0,0013.49,0004.40,0003.29
2024-05-05 14:29:00,SystemResetWarning,0822.4,4.99,000.00,023.5,022.8,000.0,032.0,025.3,023.9,0000.0,0013.66,0004.40,0003.29
2024-05-05 14:30:00,SystemResetWarning,0822.4,5.00,000.00,023.5,022.8,000.0,032.0,025.3,024.2,0000.0,0013.52,0004.40,0003.30
2024-05-05 14:31:00,SystemResetWarning,0822.4,4.99,000.00,023.5,022.8,000.0,032.0,025.3,024.2,0000.0,0013.60,0004.39,0003.30
2024-05-05 14:32:00,SystemResetWarning,0822.4,5.01,000.00,023.5,022.8,000.0,032.0,025.3,024.2,0000.0,0013.70,0004.39,0003.30
2024-05-05 14:33:00,SystemResetWarning,0822.4,5.00,000.00,023.5,022.8,000.0,032.0,025.4,024.3,0000.0,0013.80,0004.38,0003.30
2024-05-05 14:34:00,SystemResetWarning,0822.3,5.01,000.00,023.5,022.8,000.0,032.0,025.3,024.3,0000.0,0012.75,0004.41,0003.30
2024-05-05 14:35:00,SystemResetWarning,0822.2,4.99,000.00,023.5,022.8,000.0,032.0,025.3,024.2,0000.0,0013.04,0004.40,0003.30
2024-05-05 14:36:00,SystemResetWarning,0822.2,4.99,000.00,023.5,022.8,000.0,032.0,025.3,024.1,0000.0,0011.25,0004.34,0003.30
2024-05-05 14:37:00,SystemResetWarning,0822.2,5.02,000.00,023.5,022.8,000.0,032.0,025.4,024.0,0000.0,0009.83,0004.26,0003.30
2024-05-05 14:38:00,SystemResetWarning,0822.2,5.00,000.00,023.5,022.8,000.0,032.0,025.4,024.0,0000.0,0009.98,0004.17,0003.29
2024-05-05 14:39:00,SystemResetWarning,0822.2,4.99,000.00,023.5,022.8,000.0,032.0,025.4,024.0,0000.0,0010.50,0004.15,0003.29
2024-05-05 14:40:00,SystemResetWarning,0822.2,5.00,000.00,023.5,022.8,000.0,032.1,025.4,024.0,0000.0,0011.46,0004.15,0003.29
2024-05-05 14:41:00,SystemResetWarning,0822.2,5.00,000.00,023.5,022.8,000.0,032.1,025.4,024.1,0000.0,0012.55,0004.18,0003.28
2024-05-05 14:42:00,SystemResetWarning,0822.2,5.00,000.00,023.5,022.8,000.0,032.1,025.4,024.1,0000.0,0012.62,0004.17,0003.29
2024-05-05 14:43:00,SystemResetWarning,0822.2,5.00,000.00,023.5,022.8,000.0,032.1,025.4,024.1,0000.0,0012.55,0004.17,0003.30
2024-05-05 14:44:00,SystemResetWarning,0822.3,5.01,000.00,023.5,022.9,000.0,032.1,025.3,024.3,0000.0,0012.24,0004.14,0003.29
2024-05-05 14:45:00,SystemResetWarning,0822.2,5.00,000.00,023.5,022.9,000.0,032.1,025.3,024.4,0000.0,0012.34,0004.16,0003.28
2024-05-05 14:46:00,SystemResetWarning,0822.2,5.00,000.00,023.6,022.9,000.0,032.1,025.4,024.2,0000.0,0011.84,0004.18,0003.28
2024-05-05 14:47:00,SystemResetWarning,0822.2,5.00,000.00,023.6,022.9,000.0,032.1,025.4,024.2,0000.0,0012.71,0004.23,0003.28
2024-05-05 14:48:00,SystemResetWarning,0822.2,5.00,000.00,023.6,022.9,000.0,032.1,025.4,024.2,0000.0,0012.97,0004.22,0003.28
2024-05-05 14:49:00,SystemResetWarning,0822.1,5.00,000.00,023.6,022.9,000.0,032.1,025.4,024.2,0000.0,0013.01,0004.26,0003.28
2024-05-05 14:50:00,SystemResetWarning,0822.1,5.00,000.00,023.6,022.9,000.0,032.1,025.4,024.1,0000.0,0013.58,0004.29,0003.27
2024-05-05 14:51:00,SystemResetWarning,0822.1,5.00,000.00,023.6,022.9,000.0,032.1,025.4,024.0,0000.0,0014.03,0004.30,0003.27
2024-05-05 14:52:00,SystemResetWarning,0822.1,5.00,000.00,023.6,022.9,000.0,032.1,025.4,024.0,0000.0,0014.31,0004.30,0003.27
2024-05-05 14:53:00,SystemResetWarning,0822.1,5.00,000.00,023.6,022.9,000.0,032.1,025.4,024.0,0000.0,0015.22,0004.32,0003.27
2024-05-05 14:54:00,SystemResetWarning,0822.2,5.00,000.00,023.6,022.9,000.0,032.1,025.4,024.1,0000.0,0016.05,0004.31,0003.26
2024-05-05 14:55:00,SystemResetWarning,0822.3,4.99,000.00,023.6,023.0,000.0,032.1,025.4,024.2,0000.0,0016.33,0004.38,0003.27
2024-05-05 14:56:00,SystemResetWarning,0822.2,4.99,000.00,023.6,023.0,000.0,032.1,025.4,024.2,0000.0,0016.34,0004.34,0003.27
2024-05-05 14:57:00,SystemResetWarning,0822.2,4.99,000.00,023.6,023.0,000.0,032.1,025.4,024.1,0000.0,0016.71,0004.33,0003.27
2024-05-05 14:58:00,SystemResetWarning,0822.2,5.00,000.00,023.7,023.0,000.0,032.1,025.4,024.2,0000.0,0016.34,0004.28,0003.27
2024-05-05 14:59:00,SystemResetWarning,0822.2,5.01,000.00,023.7,023.0,000.0,032.1,025.5,024.1,0000.0,0016.51,0004.30,0003.27
